Location: Homewood
(41.1836°S, 175.9581°E)
Time: 06:37:27
(UTC+00:00)

Meteor 2-20 - Visible Passes

Search period start: 13 July 2024 00:00
Search period end: 23 July 2024 00:00
Orbit: 939 x 958 km, 82.5° (Epoch: 12 July)

Date Brightness Start Highest point End Pass type
(mag) Time Alt. Az. Time Alt. Az. Time Alt. Az.
13 Jul 6.0 06:11:16 10° ENE 06:13:07 14° E 06:13:07 14° E visible
13 Jul 4.7 07:52:22 10° NNW 07:57:19 60° NNW 07:57:19 60° NNW visible
13 Jul 7.2 17:02:28 10° SE 17:05:07 13° ESE 17:07:46 10° E visible
13 Jul 4.6 18:44:41 10° S 18:50:56 85° E 18:57:07 10° N visible
14 Jul 5.4 06:26:39 10° NE 06:31:21 24° E 06:31:57 23° ESE visible
14 Jul 5.2 08:09:53 10° NNW 08:15:46 50° WSW 08:16:10 49° WSW visible
14 Jul 6.8 17:18:20 10° SSE 17:22:48 20° ESE 17:27:15 10° ENE visible
14 Jul 4.5 19:02:02 10° SSW 19:08:08 62° W 19:14:13 10° N visible
15 Jul 4.9 06:42:51 10° NNE 06:48:21 37° E 06:50:59 26° SE visible
15 Jul 5.9 08:27:50 10° NW 08:33:12 32° WSW 08:35:12 26° SW visible
15 Jul 6.2 17:34:55 10° SSE 17:40:22 31° ESE 17:45:46 10° NE visible
16 Jul 4.4 06:59:30 10° N 07:05:27 59° E 07:10:19 16° SSE visible
16 Jul 6.6 08:46:17 10° WNW 08:50:45 21° WSW 08:54:34 12° SSW visible
16 Jul 5.4 17:51:49 10° S 17:57:48 48° ESE 18:03:45 10° NNE visible
17 Jul 6.0 05:36:22 10° ENE 05:38:46 12° E 05:41:11 10° SE visible
17 Jul 4.4 07:16:33 10° N 07:22:39 88° W 07:28:51 10° S visible
17 Jul 7.1 09:05:40 10° W 09:08:26 13° WSW 09:11:13 10° SW visible
17 Jul 7.3 16:27:35 10° SE 16:29:12 11° ESE 16:30:47 10° ESE visible
17 Jul 4.7 18:08:55 10° S 18:15:09 75° E 18:21:20 10° NNE visible
18 Jul 5.6 05:51:19 10° NE 05:55:39 21° E 06:00:01 10° SE visible
18 Jul 5.0 07:33:58 10° NNW 07:39:57 57° W 07:46:02 10° S visible
18 Jul 7.0 16:42:51 10° SSE 16:46:54 18° ESE 16:50:57 10° ENE visible
18 Jul 4.4 18:26:12 10° SSW 18:32:24 71° W 18:38:32 10° N visible
19 Jul 5.1 06:07:19 10° NNE 06:12:38 33° E 06:18:00 10° SSE visible
19 Jul 5.8 07:51:47 10° NW 07:57:21 36° WSW 08:03:00 10° S visible
19 Jul 6.4 16:59:17 10° SSE 17:04:31 27° ESE 17:09:41 10° NE visible
19 Jul 4.8 18:43:40 10° SSW 18:49:33 45° W 18:55:22 10° NNW visible
20 Jul 4.6 06:23:51 10° NNE 06:29:42 51° E 06:35:39 10° SSE visible
20 Jul 6.5 08:10:04 10° WNW 08:14:52 24° WSW 08:19:44 10° SSW visible
20 Jul 5.6 17:16:07 10° S 17:21:59 42° ESE 17:27:49 10° NE visible
20 Jul 5.3 19:01:23 10° SSW 19:06:35 29° W 19:11:46 10° NW visible
21 Jul 4.4 06:40:46 10° N 06:46:52 81° E 06:53:04 10° S visible
21 Jul 7.0 08:29:04 10° W 08:32:31 15° WSW 08:35:59 10° SSW visible
21 Jul 4.8 17:33:10 10° S 17:39:22 66° E 17:45:30 10° NNE visible
22 Jul 4.8 06:58:06 10° NNW 07:04:08 66° W 07:10:18 10° S visible
22 Jul 7.1 16:07:27 10° SSE 16:11:01 15° ESE 16:14:33 10° E visible
22 Jul 4.4 17:50:24 10° S 17:56:38 81° W 18:02:49 10° N visible
